Time,TemperatureF,DewpointF,PressureIn,WindDirection,WindDirectionDegrees,WindSpeedMPH,WindSpeedGustMPH,Humidity,HourlyPrecipIn,Conditions,Clouds,dailyrainin,SoftwareType,DateUTC
2013-02-13 00:04:00,41.4,4.5,30.21,North,-999,0.0,0.0,21,0.00,,,-99.99,FreeWX-Wi 1.02,2013-02-13 08:04:00,
2013-02-13 00:09:00,41.2,4.3,30.21,North,-999,0.0,3.6,21,0.00,,,-99.99,FreeWX-Wi 1.02,2013-02-13 08:09:00,
2013-02-13 00:14:00,41.5,4.5,30.21,NNE,23,1.0,4.9,21,0.00,,,-99.99,FreeWX-Wi 1.02,2013-02-13 08:14:00,
2013-02-13 00:19:00,42.4,5.4,30.21,NNE,23,1.0,3.6,21,0.00,,,-99.99,FreeWX-Wi 1.02,2013-02-13 08:19:00,
2013-02-13 00:24:00,42.3,5.2,30.21,NNE,23,1.0,2.2,21,0.00,,,-99.99,FreeWX-Wi 1.02,2013-02-13 08:24:00,
2013-02-13 00:29:00,41.5,4.5,30.21,NNE,22,1.0,4.9,21,0.00,,,-99.99,FreeWX-Wi 1.02,2013-02-13 08:29:00,
2013-02-13 00:34:00,40.5,3.6,30.21,NNE,21,1.0,0.0,21,0.00,,,-99.99,FreeWX-Wi 1.02,2013-02-13 08:34:00,
2013-02-13 00:39:00,39.9,3.2,30.21,NNE,20,1.0,3.6,21,0.00,,,-99.99,FreeWX-Wi 1.02,2013-02-13 08:39:00,
2013-02-13 00:44:00,39.9,3.2,30.21,North,-999,0.0,2.7,21,0.00,,,-99.99,FreeWX-Wi 1.02,2013-02-13 08:44:00,
2013-02-13 00:49:00,40.3,3.6,30.21,North,-999,0.0,2.7,21,0.00,,,-99.99,FreeWX-Wi 1.02,2013-02-13 08:49:00,
2013-02-13 00:54:00,39.7,3.0,30.21,North,-999,0.0,0.0,21,0.00,,,-99.99,FreeWX-Wi 1.02,2013-02-13 08:54:00,
2013-02-13 00:59:00,39.4,2.7,30.21,North,-999,0.0,0.0,21,0.00,,,-99.99,FreeWX-Wi 1.02,2013-02-13 08:59:00,
2013-02-13 01:04:00,39.0,2.5,30.21,North,-999,0.0,0.0,21,0.00,,,-99.99,FreeWX-Wi 1.02,2013-02-13 09:04:00,
2013-02-13 01:09:00,38.8,2.3,30.21,North,-999,0.0,2.2,21,0.00,,,-99.99,FreeWX-Wi 1.02,2013-02-13 09:09:00,
2013-02-13 01:14:00,39.0,2.5,30.21,North,-999,0.0,4.0,21,0.00,,,-99.99,FreeWX-Wi 1.02,2013-02-13 09:14:00,
2013-02-13 01:19:00,39.2,2.7,30.21,North,-999,0.0,3.1,21,0.00,,,-99.99,FreeWX-Wi 1.02,2013-02-13 09:19:00,
2013-02-13 01:24:00,39.2,2.7,30.21,North,-999,0.0,3.1,21,0.00,,,-99.99,FreeWX-Wi 1.02,2013-02-13 09:24:00,
2013-02-13 01:29:00,39.2,2.7,30.21,NNE,17,1.0,2.7,21,0.00,,,-99.99,FreeWX-Wi 1.02,2013-02-13 09:29:00,
2013-02-13 01:34:00,39.4,2.7,30.21,NNE,17,1.0,3.6,21,0.00,,,-99.99,FreeWX-Wi 1.02,2013-02-13 09:34:00,
2013-02-13 01:39:00,39.6,2.8,30.21,NNE,17,1.0,3.1,21,0.00,,,-99.99,FreeWX-Wi 1.02,2013-02-13 09:39:00,
2013-02-13 01:44:00,39.4,2.7,30.18,NNE,17,1.0,3.1,21,0.00,,,-99.99,FreeWX-Wi 1.02,2013-02-13 09:44:00,
2013-02-13 01:49:00,39.4,2.7,30.18,NNE,17,2.0,3.1,21,0.00,,,-99.99,FreeWX-Wi 1.02,2013-02-13 09:49:00,
2013-02-13 01:54:00,38.8,2.3,30.18,NNE,17,2.0,2.7,21,0.00,,,-99.99,FreeWX-Wi 1.02,2013-02-13 09:54:00,
2013-02-13 01:59:00,38.8,2.3,30.18,NNE,17,2.0,3.6,21,0.00,,,-99.99,FreeWX-Wi 1.02,2013-02-13 09:59:00,
2013-02-13 02:04:00,39.2,2.7,30.18,NNE,17,2.0,4.0,21,0.00,,,-99.99,FreeWX-Wi 1.02,2013-02-13 10:04:00,
2013-02-13 02:09:00,39.4,2.7,30.18,NNE,18,2.0,3.1,21,0.00,,,-99.99,FreeWX-Wi 1.02,2013-02-13 10:09:00,
2013-02-13 02:14:00,39.4,2.7,30.18,NNE,18,2.0,3.1,21,0.00,,,-99.99,FreeWX-Wi 1.02,2013-02-13 10:14:00,
2013-02-13 02:19:00,39.4,2.7,30.18,NNE,18,2.0,4.0,21,0.00,,,-99.99,FreeWX-Wi 1.02,2013-02-13 10:19:00,
2013-02-13 02:24:00,39.6,2.8,30.18,NNE,19,3.0,4.5,21,0.00,,,-99.99,FreeWX-Wi 1.02,2013-02-13 10:24:00,
2013-02-13 02:29:00,39.4,2.7,30.18,NNE,19,2.0,3.1,21,0.00,,,-99.99,FreeWX-Wi 1.02,2013-02-13 10:29:00,
2013-02-13 02:34:00,39.0,2.5,30.18,NNE,19,2.0,3.6,21,0.00,,,-99.99,FreeWX-Wi 1.02,2013-02-13 10:34:00,
2013-02-13 02:39:00,39.2,2.7,30.18,NNE,20,2.0,4.0,21,0.00,,,-99.99,FreeWX-Wi 1.02,2013-02-13 10:39:00,
2013-02-13 02:44:00,39.2,2.7,30.18,NNE,20,2.0,4.0,21,0.00,,,-99.99,FreeWX-Wi 1.02,2013-02-13 10:44:00,
2013-02-13 02:49:00,39.9,3.2,30.18,NNE,20,2.0,4.0,21,0.00,,,-99.99,FreeWX-Wi 1.02,2013-02-13 10:49:00,
2013-02-13 02:54:00,40.3,3.6,30.18,NNE,20,2.0,3.1,21,0.00,,,-99.99,FreeWX-Wi 1.02,2013-02-13 10:54:00,
2013-02-13 02:59:00,40.1,3.4,30.18,NNE,20,2.0,2.7,21,0.00,,,-99.99,FreeWX-Wi 1.02,2013-02-13 10:59:00,
2013-02-13 03:04:00,40.3,3.6,30.18,NNE,20,2.0,3.6,21,0.00,,,-99.99,FreeWX-Wi 1.02,2013-02-13 11:04:00,
2013-02-13 03:09:00,39.7,3.0,30.18,NNE,20,2.0,4.0,21,0.00,,,-99.99,FreeWX-Wi 1.02,2013-02-13 11:09:00,
2013-02-13 03:14:00,39.4,2.7,30.18,NNE,20,1.0,3.1,21,0.00,,,-99.99,FreeWX-Wi 1.02,2013-02-13 11:14:00,
2013-02-13 03:19:00,38.8,2.3,30.18,NNE,21,1.0,5.4,21,0.00,,,-99.99,FreeWX-Wi 1.02,2013-02-13 11:19:00,
2013-02-13 03:24:00,39.4,2.7,30.18,NNE,23,1.0,4.0,21,0.00,,,-99.99,FreeWX-Wi 1.02,2013-02-13 11:24:00,
2013-02-13 03:29:00,39.6,2.8,30.18,NNE,25,1.0,5.4,21,0.00,,,-99.99,FreeWX-Wi 1.02,2013-02-13 11:29:00,
2013-02-13 03:34:00,41.7,4.6,30.18,NNE,27,1.0,3.6,21,0.00,,,-99.99,FreeWX-Wi 1.02,2013-02-13 11:34:00,
2013-02-13 03:39:00,41.7,4.6,30.18,NNE,29,1.0,5.8,21,0.00,,,-99.99,FreeWX-Wi 1.02,2013-02-13 11:39:00,
2013-02-13 03:44:00,41.9,4.8,30.18,NNE,31,1.0,3.6,21,0.00,,,-99.99,FreeWX-Wi 1.02,2013-02-13 11:44:00,
2013-02-13 03:49:00,41.0,4.1,30.18,NNE,33,1.0,3.6,21,0.00,,,-99.99,FreeWX-Wi 1.02,2013-02-13 11:49:00,
2013-02-13 03:54:00,40.5,3.6,30.18,NE,34,1.0,3.1,21,0.00,,,-99.99,FreeWX-Wi 1.02,2013-02-13 11:54:00,
2013-02-13 03:59:00,40.1,3.4,30.18,NE,34,1.0,2.7,21,0.00,,,-99.99,FreeWX-Wi 1.02,2013-02-13 11:59:00,
2013-02-13 04:04:00,39.2,2.7,30.18,North,-999,0.0,0.0,21,0.00,,,-99.99,FreeWX-Wi 1.02,2013-02-13 12:04:00,
2013-02-13 04:09:00,39.0,2.5,30.18,North,-999,0.0,3.6,21,0.00,,,-99.99,FreeWX-Wi 1.02,2013-02-13 12:09:00,
2013-02-13 04:14:00,39.4,2.7,30.15,North,-999,0.0,3.1,21,0.00,,,-99.99,FreeWX-Wi 1.02,2013-02-13 12:14:00,
2013-02-13 04:19:00,39.4,2.7,30.15,North,-999,0.0,4.0,21,0.00,,,-99.99,FreeWX-Wi 1.02,2013-02-13 12:19:00,
2013-02-13 04:24:00,39.2,2.7,30.15,North,-999,0.0,4.0,21,0.00,,,-99.99,FreeWX-Wi 1.02,2013-02-13 12:24:00,
2013-02-13 04:29:00,39.0,2.5,30.15,North,-999,0.0,0.0,21,0.00,,,-99.99,FreeWX-Wi 1.02,2013-02-13 12:29:00,
2013-02-13 04:34:00,38.8,2.3,30.15,North,-999,0.0,4.9,21,0.00,,,-99.99,FreeWX-Wi 1.02,2013-02-13 12:34:00,
2013-02-13 04:39:00,38.8,2.3,30.15,North,-999,0.0,2.7,21,0.00,,,-99.99,FreeWX-Wi 1.02,2013-02-13 12:39:00,
2013-02-13 04:44:00,38.7,2.1,30.15,NE,41,1.0,4.0,21,0.00,,,-99.99,FreeWX-Wi 1.02,2013-02-13 12:44:00,
2013-02-13 04:49:00,38.5,1.9,30.15,North,-999,0.0,0.0,21,0.00,,,-99.99,FreeWX-Wi 1.02,2013-02-13 12:49:00,
2013-02-13 04:54:00,38.5,1.9,30.15,North,-999,0.0,4.0,21,0.00,,,-99.99,FreeWX-Wi 1.02,2013-02-13 12:54:00,
2013-02-13 04:59:00,38.3,1.8,30.15,NE,43,1.0,3.1,21,0.00,,,-99.99,FreeWX-Wi 1.02,2013-02-13 12:59:00,
2013-02-13 05:04:00,38.5,1.9,30.15,NE,44,1.0,3.6,21,0.00,,,-99.99,FreeWX-Wi 1.02,2013-02-13 13:04:00,
2013-02-13 05:09:00,38.1,1.8,30.15,NE,45,1.0,3.6,21,0.00,,,-99.99,FreeWX-Wi 1.02,2013-02-13 13:09:00,
2013-02-13 05:14:00,38.3,1.8,30.15,NE,46,1.0,4.0,21,0.00,,,-99.99,FreeWX-Wi 1.02,2013-02-13 13:14:00,
2013-02-13 05:19:00,38.3,1.8,30.15,NE,47,1.0,3.6,21,0.00,,,-99.99,FreeWX-Wi 1.02,2013-02-13 13:19:00,
2013-02-13 05:24:00,38.7,2.1,30.15,NE,48,2.0,2.7,21,0.00,,,-99.99,FreeWX-Wi 1.02,2013-02-13 13:24:00,
2013-02-13 05:29:00,38.7,2.1,30.15,NE,48,2.0,3.6,21,0.00,,,-99.99,FreeWX-Wi 1.02,2013-02-13 13:29:00,
2013-02-13 05:34:00,38.7,2.1,30.15,NE,49,1.0,3.6,21,0.00,,,-99.99,FreeWX-Wi 1.02,2013-02-13 13:34:00,
2013-02-13 05:39:00,39.0,2.5,30.15,NE,49,2.0,3.6,21,0.00,,,-99.99,FreeWX-Wi 1.02,2013-02-13 13:39:00,
2013-02-13 05:44:00,39.2,2.7,30.15,NE,49,1.0,3.6,21,0.00,,,-99.99,FreeWX-Wi 1.02,2013-02-13 13:44:00,
2013-02-13 05:49:00,39.2,2.7,30.15,NE,49,1.0,2.7,21,0.00,,,-99.99,FreeWX-Wi 1.02,2013-02-13 13:49:00,
2013-02-13 05:54:00,38.8,2.3,30.15,NE,49,1.0,3.1,21,0.00,,,-99.99,FreeWX-Wi 1.02,2013-02-13 13:54:00,
2013-02-13 05:59:00,39.2,2.7,30.15,NE,49,1.0,4.0,21,0.00,,,-99.99,FreeWX-Wi 1.02,2013-02-13 13:59:00,
2013-02-13 06:04:00,39.7,3.0,30.15,NE,47,1.0,3.1,21,0.00,,,-99.99,FreeWX-Wi 1.02,2013-02-13 14:04:00,
2013-02-13 06:09:00,39.7,3.0,30.15,NE,46,1.0,0.0,21,0.00,,,-99.99,FreeWX-Wi 1.02,2013-02-13 14:09:00,
2013-02-13 06:14:00,39.4,2.7,30.15,North,-999,0.0,0.0,21,0.00,,,-99.99,FreeWX-Wi 1.02,2013-02-13 14:14:00,
2013-02-13 06:19:00,39.0,2.5,30.18,North,-999,0.0,2.7,21,0.00,,,-99.99,FreeWX-Wi 1.02,2013-02-13 14:19:00,
2013-02-13 06:24:00,39.2,2.7,30.18,North,-999,0.0,2.7,21,0.00,,,-99.99,FreeWX-Wi 1.02,2013-02-13 14:24:00,
2013-02-13 06:29:00,38.8,2.3,30.18,North,-999,0.0,3.6,21,0.00,,,-99.99,FreeWX-Wi 1.02,2013-02-13 14:29:00,
2013-02-13 06:34:00,38.7,2.1,30.18,North,-999,0.0,3.1,21,0.00,,,-99.99,FreeWX-Wi 1.02,2013-02-13 14:34:00,
2013-02-13 06:39:00,38.8,2.3,30.18,NE,46,1.0,3.6,21,0.00,,,-99.99,FreeWX-Wi 1.02,2013-02-13 14:39:00,
2013-02-13 06:44:00,38.8,2.3,30.21,NE,48,1.0,3.6,21,0.00,,,-99.99,FreeWX-Wi 1.02,2013-02-13 14:44:00,
2013-02-13 06:49:00,39.0,2.5,30.21,NE,50,1.0,4.5,21,0.00,,,-99.99,FreeWX-Wi 1.02,2013-02-13 14:49:00,
2013-02-13 06:54:00,39.7,3.0,30.21,NE,52,1.0,4.0,21,0.00,,,-99.99,FreeWX-Wi 1.02,2013-02-13 14:54:00,
2013-02-13 06:59:00,40.6,3.7,30.21,NE,52,1.0,2.7,21,0.00,,,-99.99,FreeWX-Wi 1.02,2013-02-13 14:59:00,
2013-02-13 07:04:00,41.2,4.3,30.21,NE,51,1.0,3.6,21,0.00,,,-99.99,FreeWX-Wi 1.02,2013-02-13 15:04:00,
2013-02-13 07:09:00,41.2,4.3,30.21,North,-999,0.0,0.0,21,0.00,,,-99.99,FreeWX-Wi 1.02,2013-02-13 15:09:00,
2013-02-13 07:14:00,43.5,5.2,30.21,NE,46,1.0,4.9,20,0.00,,,-99.99,FreeWX-Wi 1.02,2013-02-13 15:14:00,
2013-02-13 07:19:00,45.5,6.8,30.21,NE,40,1.0,6.3,20,0.00,,,-99.99,FreeWX-Wi 1.02,2013-02-13 15:19:00,
2013-02-13 07:24:00,46.0,7.2,30.21,NE,35,1.0,3.1,20,0.00,,,-99.99,FreeWX-Wi 1.02,2013-02-13 15:24:00,
2013-02-13 07:29:00,45.7,7.0,30.21,NNE,29,1.0,3.6,20,0.00,,,-99.99,FreeWX-Wi 1.02,2013-02-13 15:29:00,
2013-02-13 07:34:00,45.5,6.8,30.21,NNE,25,1.0,3.1,20,0.00,,,-99.99,FreeWX-Wi 1.02,2013-02-13 15:34:00,
2013-02-13 07:39:00,45.3,6.6,30.21,NNE,21,1.0,3.6,20,0.00,,,-99.99,FreeWX-Wi 1.02,2013-02-13 15:39:00,
2013-02-13 07:44:00,45.5,6.8,30.21,NNE,20,1.0,3.1,20,0.00,,,-99.99,FreeWX-Wi 1.02,2013-02-13 15:44:00,
2013-02-13 07:49:00,46.4,6.4,30.21,NNE,21,1.0,2.7,19,0.00,,,-99.99,FreeWX-Wi 1.02,2013-02-13 15:49:00,
2013-02-13 07:54:00,47.1,7.0,30.21,NNE,22,1.0,3.1,19,0.00,,,-99.99,FreeWX-Wi 1.02,2013-02-13 15:54:00,
2013-02-13 07:59:00,47.7,7.5,30.21,NNE,23,1.0,3.1,19,0.00,,,-99.99,FreeWX-Wi 1.02,2013-02-13 15:59:00,
2013-02-13 08:04:00,48.7,8.4,30.21,North,-999,0.0,0.0,19,0.00,,,-99.99,FreeWX-Wi 1.02,2013-02-13 16:04:00,
2013-02-13 08:09:00,50.2,11.8,30.21,North,-999,0.0,2.7,21,0.00,,,-99.99,FreeWX-Wi 1.02,2013-02-13 16:09:00,
2013-02-13 08:14:00,51.4,12.7,30.21,North,-999,0.0,3.6,21,0.00,,,-99.99,FreeWX-Wi 1.02,2013-02-13 16:14:00,
2013-02-13 08:19:00,52.2,13.5,30.21,North,-999,0.0,3.6,21,0.00,,,-99.99,FreeWX-Wi 1.02,2013-02-13 16:19:00,
2013-02-13 08:24:00,53.8,13.6,30.21,NNE,23,1.0,4.0,20,0.00,,,-99.99,FreeWX-Wi 1.02,2013-02-13 16:24:00,
2013-02-13 08:29:00,54.0,13.8,30.21,NNE,21,1.0,0.0,20,0.00,,,-99.99,FreeWX-Wi 1.02,2013-02-13 16:29:00,
2013-02-13 08:34:00,54.7,14.4,30.21,NNE,19,1.0,3.6,20,0.00,,,-99.99,FreeWX-Wi 1.02,2013-02-13 16:34:00,
2013-02-13 08:39:00,55.0,14.7,30.21,NNE,17,1.0,3.6,20,0.00,,,-99.99,FreeWX-Wi 1.02,2013-02-13 16:39:00,
2013-02-13 08:44:00,55.4,15.1,30.21,NNE,15,1.0,3.6,20,0.00,,,-99.99,FreeWX-Wi 1.02,2013-02-13 16:44:00,
2013-02-13 08:49:00,56.3,15.8,30.21,North,-999,0.0,2.7,20,0.00,,,-99.99,FreeWX-Wi 1.02,2013-02-13 16:49:00,
2013-02-13 08:54:00,56.7,16.0,30.21,North,-999,0.0,2.7,20,0.00,,,-99.99,FreeWX-Wi 1.02,2013-02-13 16:54:00,
2013-02-13 08:59:00,56.7,16.0,30.21,North,-999,0.0,0.0,20,0.00,,,-99.99,FreeWX-Wi 1.02,2013-02-13 16:59:00,
2013-02-13 09:04:00,57.6,15.6,30.21,North,-999,0.0,0.0,19,0.00,,,-99.99,FreeWX-Wi 1.02,2013-02-13 17:04:00,
2013-02-13 09:09:00,57.7,15.8,30.21,North,-999,0.0,0.0,19,0.00,,,-99.99,FreeWX-Wi 1.02,2013-02-13 17:09:00,
2013-02-13 09:14:00,58.3,16.2,30.21,North,-999,0.0,0.0,19,0.00,,,-99.99,FreeWX-Wi 1.02,2013-02-13 17:14:00,
2013-02-13 09:19:00,58.3,16.2,30.21,North,-999,0.0,0.0,19,0.00,,,-99.99,FreeWX-Wi 1.02,2013-02-13 17:19:00,
2013-02-13 09:24:00,58.6,16.5,30.21,North,-999,0.0,0.0,19,0.00,,,-99.99,FreeWX-Wi 1.02,2013-02-13 17:24:00,
2013-02-13 09:29:00,59.4,17.1,30.21,North,-999,0.0,3.6,19,0.00,,,-99.99,FreeWX-Wi 1.02,2013-02-13 17:29:00,
2013-02-13 09:34:00,59.7,17.4,30.21,North,-999,0.0,4.0,19,0.00,,,-99.99,FreeWX-Wi 1.02,2013-02-13 17:34:00,
2013-02-13 09:39:00,59.7,17.4,30.21,North,-999,0.0,4.9,19,0.00,,,-99.99,FreeWX-Wi 1.02,2013-02-13 17:39:00,
2013-02-13 09:44:00,60.6,18.1,30.21,North,354,1.0,3.6,19,0.00,,,-99.99,FreeWX-Wi 1.02,2013-02-13 17:44:00,
2013-02-13 09:49:00,61.0,18.5,30.21,NNW,339,1.0,3.1,19,0.00,,,-99.99,FreeWX-Wi 1.02,2013-02-13 17:49:00,
2013-02-13 09:54:00,61.3,18.7,30.21,NW,320,1.0,5.4,19,0.00,,,-99.99,FreeWX-Wi 1.02,2013-02-13 17:54:00,
2013-02-13 09:59:00,61.5,18.9,30.21,WNW,301,1.0,3.6,19,0.00,,,-99.99,FreeWX-Wi 1.02,2013-02-13 17:59:00,
2013-02-13 10:04:00,61.9,19.2,30.21,WNW,284,1.0,3.1,19,0.00,,,-99.99,FreeWX-Wi 1.02,2013-02-13 18:04:00,
2013-02-13 10:09:00,62.6,18.5,30.21,West,277,1.0,3.6,18,0.00,,,-99.99,FreeWX-Wi 1.02,2013-02-13 18:09:00,
2013-02-13 10:14:00,63.0,18.9,30.21,West,272,1.0,4.0,18,0.00,,,-99.99,FreeWX-Wi 1.02,2013-02-13 18:14:00,
2013-02-13 10:19:00,63.3,19.0,30.21,West,268,1.0,4.0,18,0.00,,,-99.99,FreeWX-Wi 1.02,2013-02-13 18:19:00,
2013-02-13 10:24:00,64.2,19.8,30.21,West,266,1.0,3.6,18,0.00,,,-99.99,FreeWX-Wi 1.02,2013-02-13 18:24:00,
2013-02-13 10:29:00,64.4,19.9,30.21,West,263,1.0,4.0,18,0.00,,,-99.99,FreeWX-Wi 1.02,2013-02-13 18:29:00,
2013-02-13 10:34:00,65.1,20.5,30.21,WSW,253,2.0,5.8,18,0.00,,,-99.99,FreeWX-Wi 1.02,2013-02-13 18:34:00,
2013-02-13 10:39:00,65.5,20.8,30.21,WSW,243,2.0,4.9,18,0.00,,,-99.99,FreeWX-Wi 1.02,2013-02-13 18:39:00,
2013-02-13 10:44:00,65.5,20.8,30.21,SW,234,2.0,5.4,18,0.00,,,-99.99,FreeWX-Wi 1.02,2013-02-13 18:44:00,
2013-02-13 10:49:00,65.8,21.2,30.21,SW,229,2.0,7.2,18,0.00,,,-99.99,FreeWX-Wi 1.02,2013-02-13 18:49:00,
2013-02-13 10:54:00,66.4,20.3,30.21,SW,227,3.0,6.3,17,0.00,,,-99.99,FreeWX-Wi 1.02,2013-02-13 18:54:00,
2013-02-13 10:59:00,66.6,20.5,30.21,SW,229,3.0,5.4,17,0.00,,,-99.99,FreeWX-Wi 1.02,2013-02-13 18:59:00,
2013-02-13 11:04:00,66.6,20.5,30.21,WSW,237,3.0,5.8,17,0.00,,,-99.99,FreeWX-Wi 1.02,2013-02-13 19:04:00,
2013-02-13 11:09:00,66.9,20.7,30.21,WSW,241,3.0,5.8,17,0.00,,,-99.99,FreeWX-Wi 1.02,2013-02-13 19:09:00,
2013-02-13 11:14:00,67.6,21.2,30.18,WSW,243,3.0,7.6,17,0.00,,,-99.99,FreeWX-Wi 1.02,2013-02-13 19:14:00,
2013-02-13 11:19:00,67.6,21.2,30.18,WSW,239,3.0,6.3,17,0.00,,,-99.99,FreeWX-Wi 1.02,2013-02-13 19:19:00,
2013-02-13 11:24:00,68.2,21.7,30.18,WSW,237,3.0,6.3,17,0.00,,,-99.99,FreeWX-Wi 1.02,2013-02-13 19:24:00,
2013-02-13 11:29:00,68.2,21.7,30.18,SW,234,3.0,4.9,17,0.00,,,-99.99,FreeWX-Wi 1.02,2013-02-13 19:29:00,
2013-02-13 11:34:00,68.4,21.9,30.18,SW,228,3.0,6.3,17,0.00,,,-99.99,FreeWX-Wi 1.02,2013-02-13 19:34:00,
2013-02-13 11:39:00,68.7,22.1,30.18,SW,231,3.0,6.3,17,0.00,,,-99.99,FreeWX-Wi 1.02,2013-02-13 19:39:00,
2013-02-13 11:44:00,69.3,22.6,30.18,SW,233,3.0,6.3,17,0.00,,,-99.99,FreeWX-Wi 1.02,2013-02-13 19:44:00,
2013-02-13 11:49:00,70.0,23.2,30.18,SW,230,3.0,7.6,17,0.00,,,-99.99,FreeWX-Wi 1.02,2013-02-13 19:49:00,
2013-02-13 11:54:00,70.3,23.5,30.18,SW,231,4.0,7.2,17,0.00,,,-99.99,FreeWX-Wi 1.02,2013-02-13 19:54:00,
2013-02-13 11:59:00,70.5,23.5,30.18,SW,228,4.0,6.3,17,0.00,,,-99.99,FreeWX-Wi 1.02,2013-02-13 19:59:00,
2013-02-13 12:04:00,70.5,23.5,30.18,SW,233,4.0,5.8,17,0.00,,,-99.99,FreeWX-Wi 1.02,2013-02-13 20:04:00,
2013-02-13 12:09:00,70.0,23.2,30.18,SW,229,4.0,4.9,17,0.00,,,-99.99,FreeWX-Wi 1.02,2013-02-13 20:09:00,
2013-02-13 12:14:00,70.0,23.2,30.15,SW,219,3.0,4.0,17,0.00,,,-99.99,FreeWX-Wi 1.02,2013-02-13 20:14:00,
2013-02-13 12:19:00,70.2,23.4,30.15,SW,220,4.0,8.7,17,0.00,,,-99.99,FreeWX-Wi 1.02,2013-02-13 20:19:00,
2013-02-13 12:24:00,70.9,23.9,30.15,SSW,207,4.0,11.0,17,0.00,,,-99.99,FreeWX-Wi 1.02,2013-02-13 20:24:00,
2013-02-13 12:29:00,71.1,24.1,30.15,NNE,27,4.0,10.1,17,0.00,,,-99.99,FreeWX-Wi 1.02,2013-02-13 20:29:00,
2013-02-13 12:34:00,71.6,23.0,30.15,NE,40,4.0,5.4,16,0.00,,,-99.99,FreeWX-Wi 1.02,2013-02-13 20:34:00,
2013-02-13 12:39:00,71.2,24.3,30.15,NNE,27,5.0,9.6,17,0.00,,,-99.99,FreeWX-Wi 1.02,2013-02-13 20:39:00,
2013-02-13 12:44:00,72.0,23.4,30.15,NNE,17,5.0,10.1,16,0.00,,,-99.99,FreeWX-Wi 1.02,2013-02-13 20:44:00,
2013-02-13 12:49:00,72.5,23.7,30.15,NNE,20,5.0,10.1,16,0.00,,,-99.99,FreeWX-Wi 1.02,2013-02-13 20:49:00,
2013-02-13 12:54:00,72.5,23.7,30.15,NNE,20,5.0,12.8,16,0.00,,,-99.99,FreeWX-Wi 1.02,2013-02-13 20:54:00,
2013-02-13 12:59:00,72.5,23.7,30.15,NNE,21,5.0,10.5,16,0.00,,,-99.99,FreeWX-Wi 1.02,2013-02-13 20:59:00,
2013-02-13 13:04:00,72.5,23.7,30.15,NNE,24,6.0,12.8,16,0.00,,,-99.99,FreeWX-Wi 1.02,2013-02-13 21:04:00,
2013-02-13 13:09:00,72.0,23.4,30.15,NNE,26,7.0,12.8,16,0.00,,,-99.99,FreeWX-Wi 1.02,2013-02-13 21:09:00,
2013-02-13 13:14:00,71.6,23.0,30.12,NNE,19,7.0,11.9,16,0.00,,,-99.99,FreeWX-Wi 1.02,2013-02-13 21:14:00,
2013-02-13 13:19:00,72.1,23.5,30.12,North,11,7.0,10.5,16,0.00,,,-99.99,FreeWX-Wi 1.02,2013-02-13 21:19:00,
2013-02-13 13:24:00,72.5,23.7,30.12,North,10,7.0,10.5,16,0.00,,,-99.99,FreeWX-Wi 1.02,2013-02-13 21:24:00,
2013-02-13 13:29:00,72.7,23.9,30.12,North,10,7.0,13.6,16,0.00,,,-99.99,FreeWX-Wi 1.02,2013-02-13 21:29:00,
2013-02-13 13:34:00,72.9,24.1,30.12,NNE,12,8.0,11.0,16,0.00,,,-99.99,FreeWX-Wi 1.02,2013-02-13 21:34:00,
2013-02-13 13:39:00,73.6,24.6,30.12,NNE,18,7.0,8.3,16,0.00,,,-99.99,FreeWX-Wi 1.02,2013-02-13 21:39:00,
2013-02-13 13:44:00,73.8,24.8,30.12,NNE,23,7.0,11.0,16,0.00,,,-99.99,FreeWX-Wi 1.02,2013-02-13 21:44:00,
2013-02-13 13:49:00,73.9,25.0,30.12,NNE,30,7.0,11.0,16,0.00,,,-99.99,FreeWX-Wi 1.02,2013-02-13 21:49:00,
2013-02-13 13:54:00,74.5,25.3,30.12,NE,39,7.0,8.3,16,0.00,,,-99.99,FreeWX-Wi 1.02,2013-02-13 21:54:00,
2013-02-13 13:59:00,75.2,24.4,30.12,NE,47,6.0,6.0,15,0.00,,,-99.99,FreeWX-Wi 1.02,2013-02-13 21:59:00,
2013-02-13 14:04:00,75.7,24.8,30.12,NE,56,6.0,8.7,15,0.00,,,-99.99,FreeWX-Wi 1.02,2013-02-13 22:04:00,
2013-02-13 14:09:00,75.6,24.6,30.12,ENE,60,6.0,8.7,15,0.00,,,-99.99,FreeWX-Wi 1.02,2013-02-13 22:09:00,
2013-02-13 14:14:00,74.8,25.7,30.12,ENE,60,6.0,11.0,16,0.00,,,-99.99,FreeWX-Wi 1.02,2013-02-13 22:14:00,
2013-02-13 14:19:00,74.1,25.0,30.12,NE,53,5.0,8.3,16,0.00,,,-99.99,FreeWX-Wi 1.02,2013-02-13 22:19:00,
2013-02-13 14:24:00,74.5,25.3,30.12,NE,40,4.0,8.1,16,0.00,,,-99.99,FreeWX-Wi 1.02,2013-02-13 22:24:00,
2013-02-13 14:29:00,75.4,24.4,30.12,NE,38,5.0,11.0,15,0.00,,,-99.99,FreeWX-Wi 1.02,2013-02-13 22:29:00,
2013-02-13 14:34:00,76.1,25.2,30.12,NE,37,5.0,8.1,15,0.00,,,-99.99,FreeWX-Wi 1.02,2013-02-13 22:34:00,
2013-02-13 14:39:00,76.3,25.2,30.12,NE,42,5.0,8.1,15,0.00,,,-99.99,FreeWX-Wi 1.02,2013-02-13 22:39:00,
2013-02-13 14:44:00,76.1,25.2,30.12,NE,52,4.0,6.3,15,0.00,,,-99.99,FreeWX-Wi 1.02,2013-02-13 22:44:00,
2013-02-13 14:49:00,76.1,25.2,30.12,ENE,65,5.0,8.7,15,0.00,,,-99.99,FreeWX-Wi 1.02,2013-02-13 22:49:00,
2013-02-13 14:54:00,75.9,25.0,30.12,ENE,65,6.0,11.0,15,0.00,,,-99.99,FreeWX-Wi 1.02,2013-02-13 22:54:00,
2013-02-13 14:59:00,76.1,25.2,30.09,ENE,69,5.0,8.1,15,0.00,,,-99.99,FreeWX-Wi 1.02,2013-02-13 22:59:00,
2013-02-13 15:04:00,76.3,25.2,30.09,ENE,67,5.0,8.3,15,0.00,,,-99.99,FreeWX-Wi 1.02,2013-02-13 23:04:00,
2013-02-13 15:09:00,76.5,25.3,30.09,ENE,66,5.0,7.6,15,0.00,,,-99.99,FreeWX-Wi 1.02,2013-02-13 23:09:00,
2013-02-13 15:14:00,76.6,25.5,30.12,ENE,72,5.0,8.1,15,0.00,,,-99.99,FreeWX-Wi 1.02,2013-02-13 23:14:00,
2013-02-13 15:19:00,76.5,25.3,30.12,ENE,71,4.0,5.8,15,0.00,,,-99.99,FreeWX-Wi 1.02,2013-02-13 23:19:00,
2013-02-13 15:24:00,74.7,25.5,30.12,ENE,62,4.0,5.8,16,0.00,,,-99.99,FreeWX-Wi 1.02,2013-02-13 23:24:00,
2013-02-13 15:29:00,75.2,24.4,30.12,NE,47,4.0,4.9,15,0.00,,,-99.99,FreeWX-Wi 1.02,2013-02-13 23:29:00,
2013-02-13 15:34:00,75.2,24.4,30.12,NE,37,3.0,3.0,15,0.00,,,-99.99,FreeWX-Wi 1.02,2013-02-13 23:34:00,
2013-02-13 15:39:00,75.4,24.4,30.12,NNE,25,2.0,4.0,15,0.00,,,-99.99,FreeWX-Wi 1.02,2013-02-13 23:39:00,
2013-02-13 15:44:00,74.5,25.3,30.12,NNE,14,2.0,4.9,16,0.00,,,-99.99,FreeWX-Wi 1.02,2013-02-13 23:44:00,
2013-02-13 15:49:00,74.3,25.2,30.12,North,358,2.0,6.3,16,0.00,,,-99.99,FreeWX-Wi 1.02,2013-02-13 23:49:00,
2013-02-13 15:54:00,74.8,25.7,30.12,North,4,2.0,7.2,16,0.00,,,-99.99,FreeWX-Wi 1.02,2013-02-13 23:54:00,
2013-02-13 15:59:00,74.8,25.7,30.12,NNE,32,2.0,6.3,16,0.00,,,-99.99,FreeWX-Wi 1.02,2013-02-13 23:59:00,
2013-02-13 16:04:00,74.7,25.5,30.12,SE,128,3.0,6.3,16,0.00,,,-99.99,FreeWX-Wi 1.02,2013-02-14 00:04:00,
2013-02-13 16:09:00,73.8,24.8,30.12,South,176,3.0,5.4,16,0.00,,,-99.99,FreeWX-Wi 1.02,2013-02-14 00:09:00,
2013-02-13 16:14:00,72.9,24.1,30.12,South,180,2.0,3.6,16,0.00,,,-99.99,FreeWX-Wi 1.02,2013-02-14 00:14:00,
2013-02-13 16:19:00,72.3,23.5,30.12,SSE,159,3.0,10.1,16,0.00,,,-99.99,FreeWX-Wi 1.02,2013-02-14 00:19:00,
2013-02-13 16:24:00,71.2,24.3,30.12,SSE,155,3.0,8.3,17,0.00,,,-99.99,FreeWX-Wi 1.02,2013-02-14 00:24:00,
2013-02-13 16:29:00,71.1,24.1,30.12,ESE,114,3.0,5.8,17,0.00,,,-99.99,FreeWX-Wi 1.02,2013-02-14 00:29:00,
2013-02-13 16:34:00,70.9,23.9,30.12,NNE,20,2.0,2.7,17,0.00,,,-99.99,FreeWX-Wi 1.02,2013-02-14 00:34:00,
2013-02-13 16:39:00,70.2,23.4,30.12,NNE,20,2.0,2.7,17,0.00,,,-99.99,FreeWX-Wi 1.02,2013-02-14 00:39:00,
2013-02-13 16:44:00,69.3,22.6,30.12,NNE,15,2.0,5.8,17,0.00,,,-99.99,FreeWX-Wi 1.02,2013-02-14 00:44:00,
2013-02-13 16:49:00,68.7,22.1,30.12,North,5,2.0,8.7,17,0.00,,,-99.99,FreeWX-Wi 1.02,2013-02-14 00:49:00,
2013-02-13 16:54:00,68.4,21.9,30.12,NNE,17,2.0,11.0,17,0.00,,,-99.99,FreeWX-Wi 1.02,2013-02-14 00:54:00,
2013-02-13 16:59:00,67.6,21.2,30.12,NE,41,2.0,5.4,17,0.00,,,-99.99,FreeWX-Wi 1.02,2013-02-14 00:59:00,
2013-02-13 17:04:00,66.7,20.5,30.12,ENE,73,3.0,4.9,17,0.00,,,-99.99,FreeWX-Wi 1.02,2013-02-14 01:04:00,
2013-02-13 17:09:00,66.0,21.4,30.12,East,99,3.0,4.0,18,0.00,,,-99.99,FreeWX-Wi 1.02,2013-02-14 01:09:00,
2013-02-13 17:14:00,65.7,21.0,30.12,ESE,113,3.0,4.9,18,0.00,,,-99.99,FreeWX-Wi 1.02,2013-02-14 01:14:00,
2013-02-13 17:19:00,64.9,20.5,30.12,ESE,108,2.0,3.1,18,0.00,,,-99.99,FreeWX-Wi 1.02,2013-02-14 01:19:00,
2013-02-13 17:24:00,64.4,19.9,30.12,ESE,105,2.0,3.1,18,0.00,,,-99.99,FreeWX-Wi 1.02,2013-02-14 01:24:00,
2013-02-13 17:29:00,65.1,20.5,30.12,ESE,104,1.0,4.0,18,0.00,,,-99.99,FreeWX-Wi 1.02,2013-02-14 01:29:00,
2013-02-13 17:34:00,64.9,20.5,30.12,ESE,104,1.0,4.0,18,0.00,,,-99.99,FreeWX-Wi 1.02,2013-02-14 01:34:00,
2013-02-13 17:39:00,63.9,19.6,30.12,ESE,104,1.0,4.0,18,0.00,,,-99.99,FreeWX-Wi 1.02,2013-02-14 01:39:00,
2013-02-13 17:44:00,62.8,18.7,30.12,ESE,104,2.0,4.0,18,0.00,,,-99.99,FreeWX-Wi 1.02,2013-02-14 01:44:00,
2013-02-13 17:49:00,62.2,19.4,30.12,ESE,103,2.0,5.4,19,0.00,,,-99.99,FreeWX-Wi 1.02,2013-02-14 01:49:00,
2013-02-13 17:54:00,61.7,19.0,30.12,ESE,102,2.0,4.0,19,0.00,,,-99.99,FreeWX-Wi 1.02,2013-02-14 01:54:00,
2013-02-13 17:59:00,61.5,18.9,30.12,ESE,102,3.0,4.9,19,0.00,,,-99.99,FreeWX-Wi 1.02,2013-02-14 01:59:00,
2013-02-13 18:04:00,60.8,18.3,30.12,East,101,2.0,3.1,19,0.00,,,-99.99,FreeWX-Wi 1.02,2013-02-14 02:04:00,
2013-02-13 18:09:00,60.4,18.0,30.12,East,100,2.0,3.6,19,0.00,,,-99.99,FreeWX-Wi 1.02,2013-02-14 02:09:00,
2013-02-13 18:14:00,60.3,17.8,30.12,East,99,2.0,2.7,19,0.00,,,-99.99,FreeWX-Wi 1.02,2013-02-14 02:14:00,
2013-02-13 18:19:00,59.9,17.6,30.12,East,99,2.0,3.6,19,0.00,,,-99.99,FreeWX-Wi 1.02,2013-02-14 02:19:00,
2013-02-13 18:24:00,59.9,17.6,30.12,East,98,2.0,3.6,19,0.00,,,-99.99,FreeWX-Wi 1.02,2013-02-14 02:24:00,
2013-02-13 18:29:00,59.5,17.2,30.12,East,98,2.0,3.6,19,0.00,,,-99.99,FreeWX-Wi 1.02,2013-02-14 02:29:00,
2013-02-13 18:34:00,59.7,17.4,30.12,East,98,2.0,4.0,19,0.00,,,-99.99,FreeWX-Wi 1.02,2013-02-14 02:34:00,
2013-02-13 18:39:00,59.7,17.4,30.12,East,98,2.0,4.9,19,0.00,,,-99.99,FreeWX-Wi 1.02,2013-02-14 02:39:00,
2013-02-13 18:44:00,58.6,16.5,30.12,East,98,2.0,4.0,19,0.00,,,-99.99,FreeWX-Wi 1.02,2013-02-14 02:44:00,
2013-02-13 18:49:00,57.7,15.8,30.12,East,98,1.0,2.7,19,0.00,,,-99.99,FreeWX-Wi 1.02,2013-02-14 02:49:00,
2013-02-13 18:54:00,56.8,16.2,30.12,East,98,1.0,2.7,20,0.00,,,-99.99,FreeWX-Wi 1.02,2013-02-14 02:54:00,
2013-02-13 18:59:00,56.8,16.2,30.15,East,98,1.0,4.0,20,0.00,,,-99.99,FreeWX-Wi 1.02,2013-02-14 02:59:00,
2013-02-13 19:05:00,56.8,16.2,30.15,East,97,1.0,4.0,20,0.00,,,-99.99,FreeWX-Wi 1.02,2013-02-14 03:05:00,
2013-02-13 19:10:00,57.4,15.4,30.15,East,91,1.0,4.9,19,0.00,,,-99.99,FreeWX-Wi 1.02,2013-02-14 03:10:00,
2013-02-13 19:15:00,56.8,16.2,30.15,East,83,1.0,3.6,20,0.00,,,-99.99,FreeWX-Wi 1.02,2013-02-14 03:15:00,
2013-02-13 19:20:00,57.0,16.3,30.15,ENE,75,1.0,4.9,20,0.00,,,-99.99,FreeWX-Wi 1.02,2013-02-14 03:20:00,
2013-02-13 19:25:00,57.2,15.3,30.15,ENE,66,2.0,4.0,19,0.00,,,-99.99,FreeWX-Wi 1.02,2013-02-14 03:25:00,
2013-02-13 19:30:00,56.7,16.0,30.15,ENE,58,2.0,4.9,20,0.00,,,-99.99,FreeWX-Wi 1.02,2013-02-14 03:30:00,
2013-02-13 19:35:00,55.9,15.4,30.15,NE,50,2.0,3.6,20,0.00,,,-99.99,FreeWX-Wi 1.02,2013-02-14 03:35:00,
2013-02-13 19:40:00,55.4,15.1,30.15,NE,48,1.0,3.1,20,0.00,,,-99.99,FreeWX-Wi 1.02,2013-02-14 03:40:00,
2013-02-13 19:45:00,55.9,15.4,30.15,NE,46,1.0,3.1,20,0.00,,,-99.99,FreeWX-Wi 1.02,2013-02-14 03:45:00,
2013-02-13 19:50:00,55.2,14.9,30.15,NE,45,1.0,3.6,20,0.00,,,-99.99,FreeWX-Wi 1.02,2013-02-14 03:50:00,
2013-02-13 19:55:00,54.1,14.0,30.15,North,-999,0.0,0.0,20,0.00,,,-99.99,FreeWX-Wi 1.02,2013-02-14 03:55:00,
2013-02-13 20:00:00,53.2,14.4,30.15,North,-999,0.0,0.0,21,0.00,,,-99.99,FreeWX-Wi 1.02,2013-02-14 04:00:00,
2013-02-13 20:05:00,53.8,13.6,30.15,North,-999,0.0,3.1,20,0.00,,,-99.99,FreeWX-Wi 1.02,2013-02-14 04:05:00,
2013-02-13 20:10:00,54.1,14.0,30.15,North,-999,0.0,3.6,20,0.00,,,-99.99,FreeWX-Wi 1.02,2013-02-14 04:10:00,
2013-02-13 20:15:00,54.5,14.2,30.15,North,-999,0.0,3.1,20,0.00,,,-99.99,FreeWX-Wi 1.02,2013-02-14 04:15:00,
2013-02-13 20:20:00,54.1,14.0,30.15,North,-999,0.0,2.7,20,0.00,,,-99.99,FreeWX-Wi 1.02,2013-02-14 04:20:00,
2013-02-13 20:25:00,53.6,13.5,30.15,North,-999,0.0,3.1,20,0.00,,,-99.99,FreeWX-Wi 1.02,2013-02-14 04:25:00,
2013-02-13 20:30:00,53.6,13.5,30.15,NE,44,1.0,4.0,20,0.00,,,-99.99,FreeWX-Wi 1.02,2013-02-14 04:30:00,
2013-02-13 20:35:00,54.1,14.0,30.15,NE,44,1.0,3.6,20,0.00,,,-99.99,FreeWX-Wi 1.02,2013-02-14 04:35:00,
2013-02-13 20:40:00,53.2,14.4,30.15,North,-999,0.0,0.0,21,0.00,,,-99.99,FreeWX-Wi 1.02,2013-02-14 04:40:00,
2013-02-13 20:45:00,52.3,13.6,30.15,North,-999,0.0,0.0,21,0.00,,,-99.99,FreeWX-Wi 1.02,2013-02-14 04:45:00,
2013-02-13 20:50:00,51.8,13.1,30.15,North,-999,0.0,0.0,21,0.00,,,-99.99,FreeWX-Wi 1.02,2013-02-14 04:50:00,
2013-02-13 20:55:00,52.0,13.3,30.15,North,-999,0.0,0.0,21,0.00,,,-99.99,FreeWX-Wi 1.02,2013-02-14 04:55:00,
2013-02-13 21:00:00,52.2,13.5,30.15,North,-999,0.0,0.0,21,0.00,,,-99.99,FreeWX-Wi 1.02,2013-02-14 05:00:00,
2013-02-13 21:05:00,51.4,12.7,30.15,North,-999,0.0,0.0,21,0.00,,,-99.99,FreeWX-Wi 1.02,2013-02-14 05:05:00,
2013-02-13 21:10:00,51.1,12.6,30.15,North,-999,0.0,3.1,21,0.00,,,-99.99,FreeWX-Wi 1.02,2013-02-14 05:10:00,
2013-02-13 21:15:00,50.5,12.0,30.15,North,-999,0.0,0.0,21,0.00,,,-99.99,FreeWX-Wi 1.02,2013-02-14 05:15:00,
2013-02-13 21:20:00,50.2,11.8,30.15,North,-999,0.0,0.0,21,0.00,,,-99.99,FreeWX-Wi 1.02,2013-02-14 05:20:00,
2013-02-13 21:25:00,49.6,11.3,30.15,North,-999,0.0,0.0,21,0.00,,,-99.99,FreeWX-Wi 1.02,2013-02-14 05:25:00,
2013-02-13 21:30:00,49.3,8.8,30.15,North,-999,0.0,0.0,19,0.00,,,-99.99,FreeWX-Wi 1.02,2013-02-14 05:30:00,
2013-02-13 21:35:00,48.9,8.4,30.15,North,-999,0.0,0.0,19,0.00,,,-99.99,FreeWX-Wi 1.02,2013-02-14 05:35:00,
2013-02-13 21:40:00,48.7,8.4,30.15,North,-999,0.0,0.0,19,0.00,,,-99.99,FreeWX-Wi 1.02,2013-02-14 05:40:00,
2013-02-13 21:45:00,48.9,8.4,30.15,North,-999,0.0,2.7,19,0.00,,,-99.99,FreeWX-Wi 1.02,2013-02-14 05:45:00,
2013-02-13 21:50:00,48.9,8.4,30.15,North,-999,0.0,3.6,19,0.00,,,-99.99,FreeWX-Wi 1.02,2013-02-14 05:50:00,
2013-02-13 21:55:00,49.3,8.8,30.15,North,-999,0.0,2.7,19,0.00,,,-99.99,FreeWX-Wi 1.02,2013-02-14 05:55:00,
2013-02-13 22:00:00,49.5,9.0,30.15,North,-999,0.0,3.1,19,0.00,,,-99.99,FreeWX-Wi 1.02,2013-02-14 06:00:00,
2013-02-13 22:05:00,49.6,9.1,30.15,NE,44,1.0,3.6,19,0.00,,,-99.99,FreeWX-Wi 1.02,2013-02-14 06:05:00,
2013-02-13 22:10:00,49.5,9.0,30.15,NE,44,1.0,2.2,19,0.00,,,-99.99,FreeWX-Wi 1.02,2013-02-14 06:10:00,
2013-02-13 22:15:00,48.9,8.4,30.15,NE,44,1.0,2.7,19,0.00,,,-99.99,FreeWX-Wi 1.02,2013-02-14 06:15:00,
2013-02-13 22:20:00,48.7,8.4,30.15,NE,44,1.0,3.6,19,0.00,,,-99.99,FreeWX-Wi 1.02,2013-02-14 06:20:00,
2013-02-13 22:25:00,48.4,8.1,30.15,NE,44,1.0,3.1,19,0.00,,,-99.99,FreeWX-Wi 1.02,2013-02-14 06:25:00,
2013-02-13 22:30:00,48.2,7.9,30.12,NE,44,1.0,3.1,19,0.00,,,-99.99,FreeWX-Wi 1.02,2013-02-14 06:30:00,
2013-02-13 22:35:00,48.2,7.9,30.12,NE,44,1.0,4.0,19,0.00,,,-99.99,FreeWX-Wi 1.02,2013-02-14 06:35:00,
2013-02-13 22:40:00,48.2,7.9,30.12,NE,44,1.0,3.1,19,0.00,,,-99.99,FreeWX-Wi 1.02,2013-02-14 06:40:00,
2013-02-13 22:45:00,48.2,7.9,30.15,NE,44,1.0,2.7,19,0.00,,,-99.99,FreeWX-Wi 1.02,2013-02-14 06:45:00,
2013-02-13 22:50:00,47.8,7.5,30.15,NE,44,1.0,0.0,19,0.00,,,-99.99,FreeWX-Wi 1.02,2013-02-14 06:50:00,
2013-02-13 22:55:00,47.7,7.5,30.15,NE,44,1.0,4.0,19,0.00,,,-99.99,FreeWX-Wi 1.02,2013-02-14 06:55:00,
2013-02-13 23:00:00,47.7,7.5,30.15,NE,44,1.0,3.1,19,0.00,,,-99.99,FreeWX-Wi 1.02,2013-02-14 07:00:00,
2013-02-13 23:05:00,48.0,7.7,30.15,NE,44,1.0,4.0,19,0.00,,,-99.99,FreeWX-Wi 1.02,2013-02-14 07:05:00,
2013-02-13 23:10:00,47.7,7.5,30.15,NE,44,1.0,0.0,19,0.00,,,-99.99,FreeWX-Wi 1.02,2013-02-14 07:10:00,
2013-02-13 23:15:00,47.3,7.2,30.15,NE,44,1.0,3.6,19,0.00,,,-99.99,FreeWX-Wi 1.02,2013-02-14 07:15:00,
2013-02-13 23:20:00,46.9,6.8,30.15,NE,44,1.0,4.9,19,0.00,,,-99.99,FreeWX-Wi 1.02,2013-02-14 07:20:00,
2013-02-13 23:25:00,47.1,7.0,30.15,NE,44,1.0,4.0,19,0.00,,,-99.99,FreeWX-Wi 1.02,2013-02-14 07:25:00,
2013-02-13 23:30:00,47.3,7.2,30.15,NE,44,1.0,2.7,19,0.00,,,-99.99,FreeWX-Wi 1.02,2013-02-14 07:30:00,
2013-02-13 23:35:00,47.5,7.3,30.15,NE,44,1.0,6.3,19,0.00,,,-99.99,FreeWX-Wi 1.02,2013-02-14 07:35:00,
2013-02-13 23:40:00,48.0,7.7,30.15,NE,40,1.0,5.4,19,0.00,,,-99.99,FreeWX-Wi 1.02,2013-02-14 07:40:00,
2013-02-13 23:45:00,48.2,7.9,30.15,NE,36,1.0,3.6,19,0.00,,,-99.99,FreeWX-Wi 1.02,2013-02-14 07:45:00,
2013-02-13 23:50:00,48.0,7.7,30.15,NNE,33,1.0,3.1,19,0.00,,,-99.99,FreeWX-Wi 1.02,2013-02-14 07:50:00,
2013-02-13 23:55:00,47.8,7.5,30.15,NNE,30,1.0,4.0,19,0.00,,,-99.99,FreeWX-Wi 1.02,2013-02-14 07:55:00,